Location: Sabalos
(43.2860°N, 0.1414°E)
Time: 10:51:11
(UTC+00:00)

Terra - Pass Details

Date: 05 July 2020
Orbit: 701 x 703 km, 98.2° (Epoch: 06 August)

Event Time Altitude Azimuth Distance (km) Brightness Sun altitude
Exits shadow 22:10:31 33° 186° (S) 1,166 2.5 -19.1°
Maximum altitude 22:12:33 66° 258° (WSW) 767 2.0 -19.2°
Drops below altitude 10° 22:17:19 10° 341° (NNW) 2,180 5.6 -19.6°
Sets 22:19:36 0° 345° (NNW) 3,103 6.7 -19.8°
